Regional Weather Roundup
Issued by NWS

Home | Current Version | Previous Version | Text Only | Print | Product List | Glossary Off
Versions: 1 2 3 4 5 6 7 8 9 10 11 12 13 14 15 16 17 18 19 20 21 22 23 24 25 26 27 28 29 30 31 32 33 34 35 36 37 38 39 40 41 42 43 44 45 46 47 48 49 50

000
ASUS43 KLMK 271502
RWRKY
KENTUCKY REGIONAL WEATHER ROUNDUP
NATIONAL WEATHER SERVICE LOUISVILLE KY
1000 AM EST TUE JAN 27 2015

NOTE "FAIR" INDICATES FEW OR NO CLOUDS BELOW 12,000 FEET
WITH NO SIGNIFICANT WEATHER AND/OR OBSTRUCTIONS TO VISIBILITY.

KYZ001>023-026-027-061>063-070>075-271600-
WESTERN AND SOUTH CENTRAL KENTUCKY

CITY           SKY/WX    TMP DP  RH WIND       PRES   REMARKS
PADUCAH        PTSUNNY   38  33  82 N5        30.09R WCI  34
HENDERSON      CLOUDY    34  28  80 N6        30.06R WCI  29
OWENSBORO      CLOUDY    32  31  96 N5        30.06R FOG     WCI  27
HOPKINSVILLE   MOSUNNY   37  32  83 NW9       30.04R WCI  30
BOWLING GREEN  CLOUDY    33  30  88 N5        30.04R FOG     WCI  29
GLASGOW        NOT AVBL
$$

KYZ024-025-028>034-038-045-046-053-271600-
NORTH CENTRAL KENTUCKY

CITY           SKY/WX    TMP DP  RH WIND       PRES   REMARKS
LOUISVILLE/SDF LGT SNOW  31  26  82 N7        30.06R FOG     WCI  24
LOUISVILLE/LOU CLOUDY    31  26  82 N5        30.06R WCI  26
FORT KNOX      CLOUDY    29  26  90 N3        30.03R
$$

KYZ035>037-039>044-047>052-055>060-089>105-271600-
NORTHEAST KENTUCKY

CITY           SKY/WX    TMP DP  RH WIND       PRES   REMARKS
LEXINGTON      CLOUDY    25  21  85 NE8       30.03R WCI  16
COVINGTON      CLOUDY    21  13  71 NE8       30.05R WCI  11
FRANKFORT      CLOUDY    26  21  81 NE6       30.03R WCI  19
$$

KYZ054-064>069-076>088-106>120-271600-
SOUTHEAST KENTUCKY

CITY           SKY/WX    TMP DP  RH WIND       PRES   REMARKS
JACKSON        CLOUDY    27  20  75 VRB3      29.98R
LONDON         CLOUDY    30  23  75 N7        29.98R WCI  23
SOMERSET       NOT AVBL
MIDDLESBORO    NOT AVBL
MONTICELLO     CLOUDY    31  29  92 N6        30.03R WCI  25
$$



USA.gov is the U.S. government's official web portal to all federal, state and local government web resources and services.